Time,TemperatureF,DewpointF,PressureIn,WindDirection,WindDirectionDegrees,WindSpeedMPH,WindSpeedGustMPH,Humidity,HourlyPrecipIn,Conditions,Clouds,dailyrainin,SoftwareType,DateUTC
2013-06-23 00:01:00,69.2,58.6,30.13,SW,221,1.0,2.0,69,0.00,,CLR,0.00,VWS V14.01,2013-06-23 04:01:00,
2013-06-23 00:06:00,69.2,58.6,30.12,SW,221,0.0,3.0,69,0.00,,CLR,0.00,VWS V14.01,2013-06-23 04:06:00,
2013-06-23 00:11:00,69.2,59.0,30.13,SW,223,0.0,3.0,70,0.00,,CLR,0.00,VWS V14.01,2013-06-23 04:11:00,
2013-06-23 00:16:00,69.1,58.5,30.13,SW,215,0.0,3.0,69,0.00,,CLR,0.00,VWS V14.01,2013-06-23 04:16:00,
2013-06-23 00:21:00,69.1,58.5,30.13,WSW,253,1.0,5.0,69,0.00,,CLR,0.00,VWS V14.01,2013-06-23 04:21:00,
2013-06-23 00:26:00,69.1,58.5,30.13,SW,229,0.0,5.0,69,0.00,,CLR,0.00,VWS V14.01,2013-06-23 04:26:00,
2013-06-23 00:31:00,69.0,58.4,30.13,WSW,250,0.0,5.0,69,0.00,,CLR,0.00,VWS V14.01,2013-06-23 04:31:00,
2013-06-23 00:36:00,69.0,58.4,30.13,South,186,0.0,5.0,69,0.00,,CLR,0.00,VWS V14.01,2013-06-23 04:36:00,
2013-06-23 00:41:00,69.0,58.4,30.13,WSW,240,2.0,5.0,69,0.00,,CLR,0.00,VWS V14.01,2013-06-23 04:41:00,
2013-06-23 00:46:00,68.9,58.3,30.13,SW,218,2.0,5.0,69,0.00,,CLR,0.00,VWS V14.01,2013-06-23 04:46:00,
2013-06-23 00:51:00,68.9,58.3,30.13,SW,214,0.0,5.0,69,0.00,,CLR,0.00,VWS V14.01,2013-06-23 04:51:00,
2013-06-23 00:56:00,68.8,58.2,30.13,SW,230,2.0,5.0,69,0.00,,CLR,0.00,VWS V14.01,2013-06-23 04:56:00,
2013-06-23 01:01:00,68.8,58.2,30.13,South,191,0.0,1.0,69,0.00,,FEW100,0.00,VWS V14.01,2013-06-23 05:01:00,
2013-06-23 01:06:00,68.7,58.1,30.13,SW,219,0.0,1.0,69,0.00,,FEW100,0.00,VWS V14.01,2013-06-23 05:06:00,
2013-06-23 01:11:00,68.7,58.1,30.12,SSW,199,0.0,2.0,69,0.00,,FEW100,0.00,VWS V14.01,2013-06-23 05:11:00,
2013-06-23 01:16:00,68.6,58.0,30.13,SW,218,1.0,3.0,69,0.00,,FEW100,0.00,VWS V14.01,2013-06-23 05:16:00,
2013-06-23 01:21:00,68.6,58.4,30.13,SSW,203,0.0,3.0,70,0.00,,FEW100,0.00,VWS V14.01,2013-06-23 05:21:00,
2013-06-23 01:26:00,68.6,58.4,30.13,SSW,192,0.0,3.0,70,0.00,,FEW100,0.00,VWS V14.01,2013-06-23 05:26:00,
2013-06-23 01:31:00,68.6,58.4,30.13,SW,222,0.0,3.0,70,0.00,,FEW100,0.00,VWS V14.01,2013-06-23 05:31:00,
2013-06-23 01:36:00,68.5,58.3,30.13,SW,222,0.0,3.0,70,0.00,,FEW100,0.00,VWS V14.01,2013-06-23 05:36:00,
2013-06-23 01:41:00,68.5,58.3,30.13,SSW,206,0.0,3.0,70,0.00,,FEW100,0.00,VWS V14.01,2013-06-23 05:41:00,
2013-06-23 01:46:00,68.4,58.2,30.13,SSW,208,0.0,3.0,70,0.00,,FEW100,0.00,VWS V14.01,2013-06-23 05:46:00,
2013-06-23 01:51:00,68.4,58.6,30.13,SW,226,0.0,3.0,71,0.00,,FEW100,0.00,VWS V14.01,2013-06-23 05:51:00,
2013-06-23 01:56:00,68.4,58.2,30.13,SSW,205,0.0,3.0,70,0.00,,FEW100,0.00,VWS V14.01,2013-06-23 05:56:00,
2013-06-23 02:01:00,68.3,58.2,30.13,SSW,207,0.0,0.0,70,0.00,,BKN100,0.00,VWS V14.01,2013-06-23 06:01:00,
2013-06-23 02:06:00,68.3,58.5,30.12,SW,218,1.0,1.0,71,0.00,,BKN100,0.00,VWS V14.01,2013-06-23 06:06:00,
2013-06-23 02:11:00,68.3,58.2,30.12,SW,218,0.0,2.0,70,0.00,,BKN100,0.00,VWS V14.01,2013-06-23 06:11:00,
2013-06-23 02:16:00,68.3,58.2,30.12,SW,221,1.0,4.0,70,0.00,,BKN100,0.00,VWS V14.01,2013-06-23 06:16:00,
2013-06-23 02:21:00,68.3,58.5,30.12,SSW,209,0.0,4.0,71,0.00,,BKN100,0.00,VWS V14.01,2013-06-23 06:21:00,
2013-06-23 02:26:00,68.2,58.5,30.12,WSW,244,0.0,4.0,71,0.00,,BKN100,0.00,VWS V14.01,2013-06-23 06:26:00,
2013-06-23 02:31:00,68.1,58.7,30.12,West,272,0.0,4.0,72,0.00,,BKN100,0.00,VWS V14.01,2013-06-23 06:31:00,
2013-06-23 02:36:00,67.9,58.5,30.11,SW,223,0.0,4.0,72,0.00,,BKN100,0.00,VWS V14.01,2013-06-23 06:36:00,
2013-06-23 02:41:00,67.7,58.7,30.11,SSW,205,0.0,4.0,73,0.00,,BKN100,0.00,VWS V14.01,2013-06-23 06:41:00,
2013-06-23 02:46:00,67.5,58.5,30.11,SSW,203,1.0,4.0,73,0.00,,BKN100,0.00,VWS V14.01,2013-06-23 06:46:00,
2013-06-23 02:51:00,67.4,58.5,30.11,SSW,200,0.0,4.0,73,0.00,,BKN100,0.00,VWS V14.01,2013-06-23 06:51:00,
2013-06-23 02:56:00,67.3,58.4,30.11,SSW,200,0.0,4.0,73,0.00,,BKN100,0.00,VWS V14.01,2013-06-23 06:56:00,
2013-06-23 03:01:00,67.2,58.6,30.11,SW,225,0.0,1.0,74,0.00,,OVC110,0.00,VWS V14.01,2013-06-23 07:01:00,
2013-06-23 03:06:00,67.2,58.3,30.10,SSW,203,0.0,1.0,73,0.00,,OVC110,0.00,VWS V14.01,2013-06-23 07:06:00,
2013-06-23 03:11:00,67.1,58.2,30.10,SSW,213,0.0,1.0,73,0.00,,OVC110,0.00,VWS V14.01,2013-06-23 07:11:00,
2013-06-23 03:16:00,67.2,58.3,30.10,SW,221,0.0,1.0,73,0.00,,OVC110,0.00,VWS V14.01,2013-06-23 07:16:00,
2013-06-23 03:21:00,67.1,58.2,30.10,SSW,209,0.0,1.0,73,0.00,,OVC110,0.00,VWS V14.01,2013-06-23 07:21:00,
2013-06-23 03:26:00,67.1,58.5,30.10,SSW,209,0.0,1.0,74,0.00,,OVC110,0.00,VWS V14.01,2013-06-23 07:26:00,
2013-06-23 03:31:00,67.1,58.2,30.10,SSW,210,0.0,1.0,73,0.00,,OVC110,0.00,VWS V14.01,2013-06-23 07:31:00,
2013-06-23 03:36:00,67.1,58.2,30.10,SSW,210,0.0,1.0,73,0.00,,OVC110,0.00,VWS V14.01,2013-06-23 07:36:00,
2013-06-23 03:41:00,67.1,58.2,30.10,SSW,208,0.0,1.0,73,0.00,,OVC110,0.00,VWS V14.01,2013-06-23 07:41:00,
2013-06-23 03:46:00,67.1,58.2,30.10,SSW,207,0.0,1.0,73,0.00,,OVC110,0.00,VWS V14.01,2013-06-23 07:46:00,
2013-06-23 03:51:00,67.0,58.1,30.10,SSW,208,0.0,1.0,73,0.00,,OVC110,0.00,VWS V14.01,2013-06-23 07:51:00,
2013-06-23 03:56:00,66.9,58.3,30.10,SSW,207,0.0,1.0,74,0.00,,OVC110,0.00,VWS V14.01,2013-06-23 07:56:00,
2013-06-23 04:01:00,66.8,58.3,30.10,SSW,210,0.0,0.0,74,0.00,,OVC100,0.00,VWS V14.01,2013-06-23 08:01:00,
2013-06-23 04:06:00,66.7,58.2,30.09,SSW,210,0.0,0.0,74,0.00,,OVC100,0.00,VWS V14.01,2013-06-23 08:06:00,
2013-06-23 04:11:00,66.6,58.1,30.09,SSW,210,0.0,0.0,74,0.00,,OVC100,0.00,VWS V14.01,2013-06-23 08:11:00,
2013-06-23 04:16:00,66.5,58.0,30.09,SSW,210,0.0,0.0,74,0.00,,OVC100,0.00,VWS V14.01,2013-06-23 08:16:00,
2013-06-23 04:21:00,66.4,57.9,30.09,SSW,210,0.0,0.0,74,0.00,,OVC100,0.00,VWS V14.01,2013-06-23 08:21:00,
2013-06-23 04:26:00,66.3,58.2,30.09,SSW,209,0.0,0.0,75,0.00,,OVC100,0.00,VWS V14.01,2013-06-23 08:26:00,
2013-06-23 04:31:00,66.2,58.0,30.09,SSW,209,0.0,0.0,75,0.00,,OVC100,0.00,VWS V14.01,2013-06-23 08:31:00,
2013-06-23 04:36:00,66.2,58.0,30.09,SSW,209,0.0,0.0,75,0.00,,OVC100,0.00,VWS V14.01,2013-06-23 08:36:00,
2013-06-23 04:41:00,66.2,57.7,30.09,SSW,209,0.0,0.0,74,0.00,,OVC100,0.00,VWS V14.01,2013-06-23 08:41:00,
2013-06-23 04:46:00,66.2,57.7,30.09,SSW,211,0.0,0.0,74,0.00,,OVC100,0.00,VWS V14.01,2013-06-23 08:46:00,
2013-06-23 04:51:00,66.2,57.7,30.10,SSW,207,0.0,0.0,74,0.00,,OVC100,0.00,VWS V14.01,2013-06-23 08:51:00,
2013-06-23 04:56:00,66.2,57.7,30.10,SSW,210,0.0,0.0,74,0.00,,OVC100,0.00,VWS V14.01,2013-06-23 08:56:00,
2013-06-23 05:01:00,66.2,57.7,30.10,SSW,211,0.0,0.0,74,0.00,,FEW110,0.00,VWS V14.01,2013-06-23 09:01:00,
2013-06-23 05:06:00,66.2,57.7,30.10,SSW,209,0.0,0.0,74,0.00,,FEW110,0.00,VWS V14.01,2013-06-23 09:06:00,
2013-06-23 05:11:00,66.2,57.7,30.10,SSW,213,1.0,2.0,74,0.00,,FEW110,0.00,VWS V14.01,2013-06-23 09:11:00,
2013-06-23 05:16:00,66.2,57.7,30.09,SW,214,0.0,2.0,74,0.00,,FEW110,0.00,VWS V14.01,2013-06-23 09:16:00,
2013-06-23 05:21:00,66.1,57.6,30.09,SSW,192,2.0,2.0,74,0.00,,FEW110,0.00,VWS V14.01,2013-06-23 09:21:00,
2013-06-23 05:26:00,66.1,57.6,30.09,SSW,206,0.0,2.0,74,0.00,,FEW110,0.00,VWS V14.01,2013-06-23 09:26:00,
2013-06-23 05:31:00,66.0,57.5,30.09,SSW,206,0.0,2.0,74,0.00,,FEW110,0.00,VWS V14.01,2013-06-23 09:31:00,
2013-06-23 05:36:00,65.9,57.4,30.09,SSW,211,0.0,2.0,74,0.00,,FEW110,0.00,VWS V14.01,2013-06-23 09:36:00,
2013-06-23 05:41:00,65.8,57.7,30.09,SE,125,1.0,2.0,75,0.00,,FEW110,0.00,VWS V14.01,2013-06-23 09:41:00,
2013-06-23 05:46:00,65.8,57.7,30.09,South,188,0.0,2.0,75,0.00,,FEW110,0.00,VWS V14.01,2013-06-23 09:46:00,
2013-06-23 05:51:00,65.8,57.7,30.09,SSW,210,0.0,2.0,75,0.00,,FEW110,0.00,VWS V14.01,2013-06-23 09:51:00,
2013-06-23 05:56:00,65.8,57.7,30.09,SSW,210,0.0,2.0,75,0.00,,FEW110,0.00,VWS V14.01,2013-06-23 09:56:00,
2013-06-23 06:01:00,65.8,58.0,30.10,SW,217,0.0,1.0,76,0.00,,CLR,0.00,VWS V14.01,2013-06-23 10:01:00,
2013-06-23 06:06:00,65.8,58.0,30.10,SW,215,0.0,1.0,76,0.00,,CLR,0.00,VWS V14.01,2013-06-23 10:06:00,
2013-06-23 06:11:00,65.8,58.0,30.10,SW,218,0.0,1.0,76,0.00,,CLR,0.00,VWS V14.01,2013-06-23 10:11:00,
2013-06-23 06:16:00,66.0,58.2,30.10,SW,223,0.0,2.0,76,0.00,,CLR,0.00,VWS V14.01,2013-06-23 10:16:00,
2013-06-23 06:21:00,66.1,58.3,30.10,SSW,211,0.0,2.0,76,0.00,,CLR,0.00,VWS V14.01,2013-06-23 10:21:00,
2013-06-23 06:26:00,66.2,58.4,30.10,SSW,211,0.0,2.0,76,0.00,,CLR,0.00,VWS V14.01,2013-06-23 10:26:00,
2013-06-23 06:31:00,66.4,58.6,30.10,SW,219,0.0,2.0,76,0.00,,CLR,0.00,VWS V14.01,2013-06-23 10:31:00,
2013-06-23 06:36:00,66.5,58.3,30.10,SW,233,0.0,2.0,75,0.00,,CLR,0.00,VWS V14.01,2013-06-23 10:36:00,
2013-06-23 06:41:00,66.7,58.5,30.10,SW,233,0.0,2.0,75,0.00,,CLR,0.00,VWS V14.01,2013-06-23 10:41:00,
2013-06-23 06:46:00,66.8,58.6,30.10,SW,215,0.0,2.0,75,0.00,,CLR,0.00,VWS V14.01,2013-06-23 10:46:00,
2013-06-23 06:51:00,66.9,58.7,30.10,SSW,213,0.0,2.0,75,0.00,,CLR,0.00,VWS V14.01,2013-06-23 10:51:00,
2013-06-23 06:56:00,67.1,59.3,30.10,SSW,213,0.0,2.0,76,0.00,,CLR,0.00,VWS V14.01,2013-06-23 10:56:00,
2013-06-23 07:01:00,67.3,59.1,30.10,SSW,213,0.0,1.0,75,0.00,,CLR,0.00,VWS V14.01,2013-06-23 11:01:00,
2013-06-23 07:06:00,67.5,59.3,30.11,SW,225,0.0,1.0,75,0.00,,CLR,0.00,VWS V14.01,2013-06-23 11:06:00,
2013-06-23 07:11:00,67.7,59.5,30.11,SW,218,0.0,1.0,75,0.00,,CLR,0.00,VWS V14.01,2013-06-23 11:11:00,
2013-06-23 07:16:00,68.1,59.9,30.11,SSW,203,0.0,3.0,75,0.00,,CLR,0.00,VWS V14.01,2013-06-23 11:16:00,
2013-06-23 07:21:00,68.3,59.7,30.11,SSW,209,0.0,3.0,74,0.00,,CLR,0.00,VWS V14.01,2013-06-23 11:21:00,
2013-06-23 07:26:00,68.6,60.4,30.11,SSW,211,0.0,3.0,75,0.00,,CLR,0.00,VWS V14.01,2013-06-23 11:26:00,
2013-06-23 07:31:00,69.0,60.4,30.11,South,190,0.0,3.0,74,0.00,,CLR,0.00,VWS V14.01,2013-06-23 11:31:00,
2013-06-23 07:36:00,69.6,60.6,30.11,SSW,202,0.0,3.0,73,0.00,,CLR,0.00,VWS V14.01,2013-06-23 11:36:00,
2013-06-23 07:41:00,70.0,61.0,30.11,SSW,210,0.0,3.0,73,0.00,,CLR,0.00,VWS V14.01,2013-06-23 11:41:00,
2013-06-23 07:46:00,70.2,60.8,30.11,SW,233,0.0,3.0,72,0.00,,CLR,0.00,VWS V14.01,2013-06-23 11:46:00,
2013-06-23 07:51:00,70.3,61.2,30.11,SW,215,0.0,3.0,73,0.00,,CLR,0.00,VWS V14.01,2013-06-23 11:51:00,
2013-06-23 07:56:00,70.6,61.9,30.11,SSW,213,1.0,3.0,74,0.00,,CLR,0.00,VWS V14.01,2013-06-23 11:56:00,
2013-06-23 08:01:00,70.8,61.7,30.11,SSW,206,0.0,1.0,73,0.00,,CLR,0.00,VWS V14.01,2013-06-23 12:01:00,
2013-06-23 08:06:00,71.0,61.9,30.11,SSW,213,1.0,3.0,73,0.00,,CLR,0.00,VWS V14.01,2013-06-23 12:06:00,
2013-06-23 08:11:00,71.3,62.2,30.11,SSW,194,1.0,3.0,73,0.00,,CLR,0.00,VWS V14.01,2013-06-23 12:11:00,
2013-06-23 08:16:00,71.6,62.1,30.11,SSW,205,2.0,3.0,72,0.00,,CLR,0.00,VWS V14.01,2013-06-23 12:16:00,
2013-06-23 08:21:00,72.0,62.5,30.11,SW,233,0.0,3.0,72,0.00,,CLR,0.00,VWS V14.01,2013-06-23 12:21:00,
2013-06-23 08:26:00,72.1,63.0,30.11,SW,217,0.0,3.0,73,0.00,,CLR,0.00,VWS V14.01,2013-06-23 12:26:00,
2013-06-23 08:31:00,72.6,63.5,30.11,SW,229,2.0,3.0,73,0.00,,CLR,0.00,VWS V14.01,2013-06-23 12:31:00,
2013-06-23 08:36:00,73.1,63.9,30.11,SW,233,1.0,3.0,73,0.00,,CLR,0.00,VWS V14.01,2013-06-23 12:36:00,
2013-06-23 08:41:00,73.2,63.2,30.11,SW,229,0.0,3.0,71,0.00,,CLR,0.00,VWS V14.01,2013-06-23 12:41:00,
2013-06-23 08:46:00,73.3,63.7,30.11,SW,225,1.0,3.0,72,0.00,,CLR,0.00,VWS V14.01,2013-06-23 12:46:00,
2013-06-23 08:51:00,73.2,63.6,30.11,SW,227,1.0,3.0,72,0.00,,CLR,0.00,VWS V14.01,2013-06-23 12:51:00,
2013-06-23 08:56:00,73.6,64.4,30.11,WSW,240,0.0,3.0,73,0.00,,CLR,0.00,VWS V14.01,2013-06-23 12:56:00,
2013-06-23 09:01:00,74.3,64.7,30.11,SW,234,0.0,0.0,72,0.00,,SCT120,0.00,VWS V14.01,2013-06-23 13:01:00,
2013-06-23 09:06:00,74.5,64.5,30.10,SW,219,0.0,2.0,71,0.00,,SCT120,0.00,VWS V14.01,2013-06-23 13:06:00,
2013-06-23 09:11:00,74.7,65.1,30.10,ESE,111,0.0,2.0,72,0.00,,SCT120,0.00,VWS V14.01,2013-06-23 13:11:00,
2013-06-23 09:16:00,75.0,65.0,30.10,WSW,248,0.0,2.0,71,0.00,,SCT120,0.00,VWS V14.01,2013-06-23 13:16:00,
2013-06-23 09:21:00,75.4,65.3,30.10,WNW,291,0.0,2.0,71,0.00,,SCT120,0.00,VWS V14.01,2013-06-23 13:21:00,
2013-06-23 09:26:00,75.6,65.5,30.10,WSW,257,0.0,2.0,71,0.00,,SCT120,0.00,VWS V14.01,2013-06-23 13:26:00,
2013-06-23 09:31:00,76.2,65.7,30.10,NNW,327,0.0,2.0,70,0.00,,SCT120,0.00,VWS V14.01,2013-06-23 13:31:00,
2013-06-23 09:36:00,76.7,66.2,30.10,SSE,157,0.0,2.0,70,0.00,,SCT120,0.00,VWS V14.01,2013-06-23 13:36:00,
2013-06-23 09:41:00,77.0,66.5,30.10,SW,221,0.0,2.0,70,0.00,,SCT120,0.00,VWS V14.01,2013-06-23 13:41:00,
2013-06-23 09:46:00,77.4,66.0,30.10,SSW,208,0.0,2.0,68,0.00,,SCT120,0.00,VWS V14.01,2013-06-23 13:46:00,
2013-06-23 09:51:00,77.8,66.8,30.10,SSW,211,2.0,2.0,69,0.00,,SCT120,0.00,VWS V14.01,2013-06-23 13:51:00,
2013-06-23 09:56:00,78.3,66.9,30.09,WNW,286,1.0,2.0,68,0.00,,SCT120,0.00,VWS V14.01,2013-06-23 13:56:00,
2013-06-23 10:01:00,78.3,66.9,30.09,SSW,196,0.0,1.0,68,0.00,,FEW110,0.00,VWS V14.01,2013-06-23 14:01:00,
2013-06-23 10:06:00,78.4,67.0,30.09,SSW,202,0.0,3.0,68,0.00,,FEW110,0.00,VWS V14.01,2013-06-23 14:06:00,
2013-06-23 10:11:00,78.8,67.4,30.09,West,269,0.0,3.0,68,0.00,,FEW110,0.00,VWS V14.01,2013-06-23 14:11:00,
2013-06-23 10:16:00,78.9,66.6,30.09,SW,230,0.0,3.0,66,0.00,,FEW110,0.00,VWS V14.01,2013-06-23 14:16:00,
2013-06-23 10:21:00,79.3,67.4,30.08,SSE,155,0.0,3.0,67,0.00,,FEW110,0.00,VWS V14.01,2013-06-23 14:21:00,
2013-06-23 10:26:00,79.7,67.8,30.08,WSW,257,0.0,3.0,67,0.00,,FEW110,0.00,VWS V14.01,2013-06-23 14:26:00,
2013-06-23 10:31:00,80.0,68.1,30.08,SW,215,3.0,3.0,67,0.00,,FEW110,0.00,VWS V14.01,2013-06-23 14:31:00,
2013-06-23 10:36:00,80.1,68.2,30.08,WSW,242,0.0,3.0,67,0.00,,FEW110,0.00,VWS V14.01,2013-06-23 14:36:00,
2013-06-23 10:41:00,80.5,69.0,30.08,West,265,1.0,3.0,68,0.00,,FEW110,0.00,VWS V14.01,2013-06-23 14:41:00,
2013-06-23 10:46:00,80.7,68.7,30.08,South,177,1.0,3.0,67,0.00,,FEW110,0.00,VWS V14.01,2013-06-23 14:46:00,
2013-06-23 10:51:00,81.2,69.2,30.08,SSW,206,1.0,3.0,67,0.00,,FEW110,0.00,VWS V14.01,2013-06-23 14:51:00,
2013-06-23 10:56:00,81.5,69.5,30.08,ESE,123,0.0,3.0,67,0.00,,FEW110,0.00,VWS V14.01,2013-06-23 14:56:00,
2013-06-23 11:01:00,81.9,69.4,30.08,SW,217,0.0,2.0,66,0.00,,SCT110,0.00,VWS V14.01,2013-06-23 15:01:00,
2013-06-23 11:06:00,82.5,69.6,30.08,SW,226,1.0,2.0,65,0.00,,SCT110,0.00,VWS V14.01,2013-06-23 15:06:00,
2013-06-23 11:11:00,83.1,69.7,30.08,SSW,206,1.0,2.0,64,0.00,,SCT110,0.00,VWS V14.01,2013-06-23 15:11:00,
2013-06-23 11:16:00,83.6,70.1,30.08,WNW,289,0.0,2.0,64,0.00,,SCT110,0.00,VWS V14.01,2013-06-23 15:16:00,
2013-06-23 11:21:00,84.0,70.5,30.08,WNW,291,0.0,2.0,64,0.00,,SCT110,0.00,VWS V14.01,2013-06-23 15:21:00,
2013-06-23 11:26:00,84.3,69.9,30.07,SSW,209,0.0,3.0,62,0.00,,SCT110,0.00,VWS V14.01,2013-06-23 15:26:00,
2013-06-23 11:32:00,84.8,71.3,30.07,SSW,206,0.0,3.0,64,0.00,,SCT110,0.00,VWS V14.01,2013-06-23 15:32:00,
2013-06-23 11:37:00,85.0,70.1,30.07,WSW,250,1.0,3.0,61,0.00,,SCT110,0.00,VWS V14.01,2013-06-23 15:37:00,
2013-06-23 11:42:00,85.3,70.8,30.07,NW,315,0.0,3.0,62,0.00,,SCT110,0.00,VWS V14.01,2013-06-23 15:42:00,
2013-06-23 11:47:00,86.0,71.0,30.07,SSW,206,0.0,3.0,61,0.00,,SCT110,0.00,VWS V14.01,2013-06-23 15:47:00,
2013-06-23 11:52:00,85.9,69.9,30.07,SW,219,1.0,3.0,59,0.00,,SCT110,0.00,VWS V14.01,2013-06-23 15:52:00,
2013-06-23 11:57:00,85.6,70.6,30.07,WSW,249,1.0,3.0,61,0.00,,SCT110,0.00,VWS V14.01,2013-06-23 15:57:00,
2013-06-23 12:02:00,86.0,70.5,30.07,SW,214,1.0,2.0,60,0.00,,SCT110,0.00,VWS V14.01,2013-06-23 16:02:00,
2013-06-23 12:07:00,86.0,70.0,30.07,SW,222,0.0,2.0,59,0.00,,SCT110,0.00,VWS V14.01,2013-06-23 16:07:00,
2013-06-23 12:12:00,86.1,71.1,30.07,SW,229,3.0,3.0,61,0.00,,SCT110,0.00,VWS V14.01,2013-06-23 16:12:00,
2013-06-23 12:17:00,86.4,70.9,30.07,SSE,153,0.0,4.0,60,0.00,,SCT110,0.00,VWS V14.01,2013-06-23 16:17:00,
2013-06-23 12:22:00,86.8,70.8,30.06,SSW,198,0.0,4.0,59,0.00,,SCT110,0.00,VWS V14.01,2013-06-23 16:22:00,
2013-06-23 12:27:00,87.2,70.6,30.06,WNW,291,1.0,4.0,58,0.00,,SCT110,0.00,VWS V14.01,2013-06-23 16:27:00,
2013-06-23 12:32:00,87.5,71.4,30.06,West,268,0.0,4.0,59,0.00,,SCT110,0.00,VWS V14.01,2013-06-23 16:32:00,
2013-06-23 12:37:00,87.8,70.7,30.06,WNW,288,1.0,4.0,57,0.00,,SCT110,0.00,VWS V14.01,2013-06-23 16:37:00,
2013-06-23 12:42:00,88.2,73.1,30.06,South,169,2.0,4.0,61,0.00,,SCT110,0.00,VWS V14.01,2013-06-23 16:42:00,
2013-06-23 12:47:00,88.3,71.7,30.05,SE,124,1.0,4.0,58,0.00,,SCT110,0.00,VWS V14.01,2013-06-23 16:47:00,
2013-06-23 12:52:00,88.5,72.8,30.05,SSW,194,1.0,4.0,60,0.00,,SCT110,0.00,VWS V14.01,2013-06-23 16:52:00,
2013-06-23 12:57:00,89.0,71.8,30.05,South,188,0.0,4.0,57,0.00,,SCT110,0.00,VWS V14.01,2013-06-23 16:57:00,
2013-06-23 13:02:00,89.1,72.9,30.04,South,179,0.0,4.0,59,0.00,,CLR,0.00,VWS V14.01,2013-06-23 17:02:00,
2013-06-23 13:07:00,89.2,72.5,30.04,WSW,238,1.0,4.0,58,0.00,,CLR,0.00,VWS V14.01,2013-06-23 17:07:00,
2013-06-23 13:12:00,89.1,71.9,30.04,SSW,200,1.0,4.0,57,0.00,,CLR,0.00,VWS V14.01,2013-06-23 17:12:00,
2013-06-23 13:17:00,89.2,71.5,30.04,West,267,1.0,4.0,56,0.00,,CLR,0.00,VWS V14.01,2013-06-23 17:17:00,
2013-06-23 13:22:00,89.0,71.8,30.03,WNW,294,2.0,4.0,57,0.00,,CLR,0.00,VWS V14.01,2013-06-23 17:22:00,
2013-06-23 13:27:00,89.4,71.7,30.03,SSW,203,2.0,4.0,56,0.00,,CLR,0.00,VWS V14.01,2013-06-23 17:27:00,
2013-06-23 13:32:00,89.5,72.8,30.03,SW,230,2.0,4.0,58,0.00,,CLR,0.00,VWS V14.01,2013-06-23 17:32:00,
2013-06-23 13:37:00,89.7,71.9,30.03,SW,217,2.0,6.0,56,0.00,,CLR,0.00,VWS V14.01,2013-06-23 17:37:00,
2013-06-23 13:42:00,89.9,73.2,30.03,SSE,167,0.0,6.0,58,0.00,,CLR,0.00,VWS V14.01,2013-06-23 17:42:00,
2013-06-23 13:47:00,90.5,72.7,30.03,South,187,2.0,6.0,56,0.00,,CLR,0.00,VWS V14.01,2013-06-23 17:47:00,
2013-06-23 13:52:00,90.7,73.4,30.02,WSW,250,0.0,6.0,57,0.00,,CLR,0.00,VWS V14.01,2013-06-23 17:52:00,
2013-06-23 13:57:00,90.6,72.2,30.02,SW,234,3.0,8.0,55,0.00,,CLR,0.00,VWS V14.01,2013-06-23 17:57:00,
2013-06-23 14:02:00,90.4,72.6,30.02,SW,225,0.0,4.0,56,0.00,,SCT250,0.00,VWS V14.01,2013-06-23 18:02:00,
2013-06-23 14:07:00,91.0,73.1,30.02,West,277,0.0,4.0,56,0.00,,SCT250,0.00,VWS V14.01,2013-06-23 18:07:00,
2013-06-23 14:12:00,91.5,73.1,30.02,SW,229,4.0,4.0,55,0.00,,SCT250,0.00,VWS V14.01,2013-06-23 18:12:00,
2013-06-23 14:17:00,91.1,72.7,30.01,ENE,70,1.0,5.0,55,0.00,,SCT250,0.00,VWS V14.01,2013-06-23 18:17:00,
2013-06-23 14:22:00,91.1,73.2,30.01,SE,145,1.0,5.0,56,0.00,,SCT250,0.00,VWS V14.01,2013-06-23 18:22:00,
2013-06-23 14:27:00,90.9,72.0,30.01,South,187,1.0,7.0,54,0.00,,SCT250,0.00,VWS V14.01,2013-06-23 18:27:00,
2013-06-23 14:32:00,90.7,72.3,30.01,SSE,164,2.0,7.0,55,0.00,,SCT250,0.00,VWS V14.01,2013-06-23 18:32:00,
2013-06-23 14:37:00,90.8,72.9,30.01,SSW,199,1.0,7.0,56,0.00,,SCT250,0.00,VWS V14.01,2013-06-23 18:37:00,
2013-06-23 14:42:00,90.8,72.9,30.01,SSE,157,0.0,7.0,56,0.00,,SCT250,0.00,VWS V14.01,2013-06-23 18:42:00,
2013-06-23 14:47:00,90.8,72.9,30.00,WSW,238,2.0,7.0,56,0.00,,SCT250,0.00,VWS V14.01,2013-06-23 18:47:00,
2013-06-23 14:52:00,90.5,72.7,30.00,SSW,200,1.0,7.0,56,0.00,,SCT250,0.00,VWS V14.01,2013-06-23 18:52:00,
2013-06-23 14:57:00,90.7,73.9,30.00,SW,223,1.0,7.0,58,0.00,,SCT250,0.00,VWS V14.01,2013-06-23 18:57:00,
2013-06-23 15:02:00,90.3,72.5,30.00,SSW,194,3.0,6.0,56,0.00,,SCT250,0.00,VWS V14.01,2013-06-23 19:02:00,
2013-06-23 15:07:00,89.9,72.6,30.00,SW,234,3.0,6.0,57,0.00,,SCT250,0.00,VWS V14.01,2013-06-23 19:07:00,
2013-06-23 15:12:00,89.6,71.8,30.00,SE,142,4.0,6.0,56,0.00,,SCT250,0.00,VWS V14.01,2013-06-23 19:12:00,
2013-06-23 15:17:00,89.4,71.7,29.99,SSW,194,1.0,6.0,56,0.00,,SCT250,0.00,VWS V14.01,2013-06-23 19:17:00,
2013-06-23 15:22:00,89.4,72.2,29.99,WSW,245,1.0,6.0,57,0.00,,SCT250,0.00,VWS V14.01,2013-06-23 19:22:00,
2013-06-23 15:27:00,89.4,72.2,29.99,SW,231,2.0,6.0,57,0.00,,SCT250,0.00,VWS V14.01,2013-06-23 19:27:00,
2013-06-23 15:32:00,89.0,71.8,29.99,SW,234,3.0,6.0,57,0.00,,SCT250,0.00,VWS V14.01,2013-06-23 19:32:00,
2013-06-23 15:37:00,89.1,72.4,29.99,West,280,0.0,6.0,58,0.00,,SCT250,0.00,VWS V14.01,2013-06-23 19:37:00,
2013-06-23 15:42:00,89.5,72.3,29.99,SW,227,1.0,6.0,57,0.00,,SCT250,0.00,VWS V14.01,2013-06-23 19:42:00,
2013-06-23 15:47:00,89.5,72.3,29.99,SW,225,1.0,6.0,57,0.00,,SCT250,0.00,VWS V14.01,2013-06-23 19:47:00,
2013-06-23 15:52:00,89.6,72.4,29.99,SW,219,2.0,6.0,57,0.00,,SCT250,0.00,VWS V14.01,2013-06-23 19:52:00,
2013-06-23 15:57:00,89.5,72.8,29.98,WSW,237,2.0,6.0,58,0.00,,SCT250,0.00,VWS V14.01,2013-06-23 19:57:00,
2013-06-23 16:02:00,89.5,71.7,29.98,SSW,213,3.0,4.0,56,0.00,,BKN250,0.00,VWS V14.01,2013-06-23 20:02:00,
2013-06-23 16:07:00,89.5,71.7,29.98,SW,236,2.0,5.0,56,0.00,,BKN250,0.00,VWS V14.01,2013-06-23 20:07:00,
2013-06-23 16:12:00,89.6,72.4,29.98,West,263,1.0,5.0,57,0.00,,BKN250,0.00,VWS V14.01,2013-06-23 20:12:00,
2013-06-23 16:17:00,89.6,71.8,29.98,SSW,205,2.0,5.0,56,0.00,,BKN250,0.00,VWS V14.01,2013-06-23 20:17:00,
2013-06-23 16:22:00,89.3,72.1,29.98,SW,226,1.0,5.0,57,0.00,,BKN250,0.00,VWS V14.01,2013-06-23 20:22:00,
2013-06-23 16:27:00,89.4,71.7,29.98,SSE,163,2.0,7.0,56,0.00,,BKN250,0.00,VWS V14.01,2013-06-23 20:27:00,
2013-06-23 16:32:00,89.3,71.6,29.98,SSE,155,1.0,7.0,56,0.00,,BKN250,0.00,VWS V14.01,2013-06-23 20:32:00,
2013-06-23 16:37:00,89.3,71.6,29.97,SW,224,2.0,8.0,56,0.00,,BKN250,0.00,VWS V14.01,2013-06-23 20:37:00,
2013-06-23 16:42:00,89.5,72.3,29.97,East,87,0.0,8.0,57,0.00,,BKN250,0.00,VWS V14.01,2013-06-23 20:42:00,
2013-06-23 16:47:00,89.7,72.4,29.97,SW,217,1.0,8.0,57,0.00,,BKN250,0.00,VWS V14.01,2013-06-23 20:47:00,
2013-06-23 16:52:00,89.5,72.3,29.97,SW,232,0.0,8.0,57,0.00,,BKN250,0.00,VWS V14.01,2013-06-23 20:52:00,
2013-06-23 16:57:00,89.4,71.1,29.97,South,184,2.0,8.0,55,0.00,,BKN250,0.00,VWS V14.01,2013-06-23 20:57:00,
2013-06-23 17:02:00,89.1,70.8,29.97,South,178,4.0,6.0,55,0.00,,BKN250,0.00,VWS V14.01,2013-06-23 21:02:00,
2013-06-23 17:07:00,88.9,70.7,29.97,WSW,242,1.0,6.0,55,0.00,,BKN250,0.00,VWS V14.01,2013-06-23 21:07:00,
2013-06-23 17:12:00,88.7,70.5,29.97,South,190,2.0,6.0,55,0.00,,BKN250,0.00,VWS V14.01,2013-06-23 21:12:00,
2013-06-23 17:17:00,88.5,70.8,29.97,East,91,1.0,6.0,56,0.00,,BKN250,0.00,VWS V14.01,2013-06-23 21:17:00,
2013-06-23 17:22:00,88.3,70.1,29.97,SSW,202,1.0,6.0,55,0.00,,BKN250,0.00,VWS V14.01,2013-06-23 21:22:00,
2013-06-23 17:27:00,87.9,70.3,29.97,SSE,159,5.0,8.0,56,0.00,,BKN250,0.00,VWS V14.01,2013-06-23 21:27:00,
2013-06-23 17:32:00,87.6,70.0,29.96,SSW,196,2.0,8.0,56,0.00,,BKN250,0.00,VWS V14.01,2013-06-23 21:32:00,
2013-06-23 17:37:00,87.5,69.9,29.96,SSW,207,2.0,8.0,56,0.00,,BKN250,0.00,VWS V14.01,2013-06-23 21:37:00,
2013-06-23 17:42:00,87.2,70.1,29.96,SSW,213,4.0,8.0,57,0.00,,BKN250,0.00,VWS V14.01,2013-06-23 21:42:00,
2013-06-23 17:47:00,87.0,69.9,29.96,SSW,198,3.0,8.0,57,0.00,,BKN250,0.00,VWS V14.01,2013-06-23 21:47:00,
2013-06-23 17:52:00,86.8,69.8,29.96,WSW,238,1.0,8.0,57,0.00,,BKN250,0.00,VWS V14.01,2013-06-23 21:52:00,
2013-06-23 17:57:00,86.8,70.8,29.96,SSE,165,2.0,8.0,59,0.00,,BKN250,0.00,VWS V14.01,2013-06-23 21:57:00,
2013-06-23 18:02:00,86.7,69.7,29.96,South,188,2.0,5.0,57,0.00,,BKN250,0.00,VWS V14.01,2013-06-23 22:02:00,
2013-06-23 18:07:00,86.6,69.6,29.96,SE,134,0.0,5.0,57,0.00,,BKN250,0.00,VWS V14.01,2013-06-23 22:07:00,
2013-06-23 18:12:00,86.5,70.5,29.96,SSW,196,1.0,5.0,59,0.00,,BKN250,0.00,VWS V14.01,2013-06-23 22:12:00,
2013-06-23 18:17:00,86.4,70.4,29.97,North,355,2.0,5.0,59,0.00,,BKN250,0.00,VWS V14.01,2013-06-23 22:17:00,
2013-06-23 18:22:00,86.0,69.5,29.97,SW,234,2.0,6.0,58,0.00,,BKN250,0.00,VWS V14.01,2013-06-23 22:22:00,
2013-06-23 18:27:00,85.8,68.8,29.97,West,281,2.0,6.0,57,0.00,,BKN250,0.00,VWS V14.01,2013-06-23 22:27:00,
2013-06-23 18:32:00,85.6,68.6,29.97,South,186,1.0,6.0,57,0.00,,BKN250,0.00,VWS V14.01,2013-06-23 22:32:00,
2013-06-23 18:37:00,85.4,68.4,29.97,SSE,162,4.0,7.0,57,0.00,,BKN250,0.00,VWS V14.01,2013-06-23 22:37:00,
2013-06-23 18:42:00,85.2,68.8,29.98,SW,222,1.0,7.0,58,0.00,,BKN250,0.00,VWS V14.01,2013-06-23 22:42:00,
2013-06-23 18:47:00,85.2,68.8,29.98,SW,215,1.0,7.0,58,0.00,,BKN250,0.00,VWS V14.01,2013-06-23 22:47:00,
2013-06-23 18:52:00,85.1,68.7,29.98,SSW,192,1.0,7.0,58,0.00,,BKN250,0.00,VWS V14.01,2013-06-23 22:52:00,
2013-06-23 18:57:00,84.8,68.4,29.98,South,171,2.0,7.0,58,0.00,,BKN250,0.00,VWS V14.01,2013-06-23 22:57:00,
2013-06-23 19:02:00,84.6,68.7,29.98,SSE,165,2.0,4.0,59,0.00,,CLR,0.00,VWS V14.01,2013-06-23 23:02:00,
2013-06-23 19:07:00,84.5,68.6,29.98,SW,219,2.0,7.0,59,0.00,,CLR,0.00,VWS V14.01,2013-06-23 23:07:00,
2013-06-23 19:12:00,84.3,68.9,29.97,SSW,207,1.0,7.0,60,0.00,,CLR,0.00,VWS V14.01,2013-06-23 23:12:00,
2013-06-23 19:17:00,84.0,68.6,29.97,SSW,194,2.0,7.0,60,0.00,,CLR,0.00,VWS V14.01,2013-06-23 23:17:00,
2013-06-23 19:22:00,83.7,68.3,29.97,SW,225,0.0,7.0,60,0.00,,CLR,0.00,VWS V14.01,2013-06-23 23:22:00,
2013-06-23 19:27:00,83.5,68.2,29.97,SSW,206,1.0,7.0,60,0.00,,CLR,0.00,VWS V14.01,2013-06-23 23:27:00,
2013-06-23 19:32:00,83.2,68.4,29.97,SSW,200,0.0,7.0,61,0.00,,CLR,0.00,VWS V14.01,2013-06-23 23:32:00,
2013-06-23 19:37:00,82.9,68.1,29.98,SW,234,1.0,7.0,61,0.00,,CLR,0.00,VWS V14.01,2013-06-23 23:37:00,
2013-06-23 19:42:00,82.6,68.3,29.98,South,183,1.0,7.0,62,0.00,,CLR,0.00,VWS V14.01,2013-06-23 23:42:00,
2013-06-23 19:47:00,82.3,68.0,29.98,SSW,200,0.0,7.0,62,0.00,,CLR,0.00,VWS V14.01,2013-06-23 23:47:00,
2013-06-23 19:52:00,82.1,67.8,29.98,South,178,0.0,7.0,62,0.00,,CLR,0.00,VWS V14.01,2013-06-23 23:52:00,
2013-06-23 19:57:00,81.8,68.0,29.98,South,191,0.0,7.0,63,0.00,,CLR,0.00,VWS V14.01,2013-06-23 23:57:00,
2013-06-23 20:02:00,81.6,67.8,29.98,SSW,203,2.0,2.0,63,0.00,,SCT250,0.00,VWS V14.01,2013-06-24 00:02:00,
2013-06-23 20:07:00,81.4,68.1,29.98,SSW,209,0.0,8.0,64,0.00,,SCT250,0.00,VWS V14.01,2013-06-24 00:07:00,
2013-06-23 20:12:00,81.1,67.8,29.98,SW,220,0.0,8.0,64,0.00,,SCT250,0.00,VWS V14.01,2013-06-24 00:12:00,
2013-06-23 20:17:00,80.9,68.0,29.99,SW,225,1.0,8.0,65,0.00,,SCT250,0.00,VWS V14.01,2013-06-24 00:17:00,
2013-06-23 20:22:00,80.6,67.8,29.99,SW,222,2.0,8.0,65,0.00,,SCT250,0.00,VWS V14.01,2013-06-24 00:22:00,
2013-06-23 20:27:00,80.4,68.0,29.99,SW,230,1.0,8.0,66,0.00,,SCT250,0.00,VWS V14.01,2013-06-24 00:27:00,
2013-06-23 20:32:00,80.2,67.8,29.99,SSW,207,1.0,8.0,66,0.00,,SCT250,0.00,VWS V14.01,2013-06-24 00:32:00,
2013-06-23 20:37:00,80.0,68.1,29.99,SSW,209,0.0,8.0,67,0.00,,SCT250,0.00,VWS V14.01,2013-06-24 00:37:00,
2013-06-23 20:42:00,79.8,68.3,29.99,SSE,153,0.0,8.0,68,0.00,,SCT250,0.00,VWS V14.01,2013-06-24 00:42:00,
2013-06-23 20:47:00,79.6,68.1,30.00,South,173,1.0,8.0,68,0.00,,SCT250,0.00,VWS V14.01,2013-06-24 00:47:00,
2013-06-23 20:52:00,79.4,68.3,29.99,SSW,200,1.0,8.0,69,0.00,,SCT250,0.00,VWS V14.01,2013-06-24 00:52:00,
2013-06-23 20:57:00,79.2,68.6,30.00,SW,233,1.0,8.0,70,0.00,,SCT250,0.00,VWS V14.01,2013-06-24 00:57:00,
2013-06-23 21:02:00,79.0,68.4,30.00,WSW,238,0.0,4.0,70,0.00,,CLR,0.00,VWS V14.01,2013-06-24 01:02:00,
2013-06-23 21:07:00,78.9,68.7,30.00,SSW,194,0.0,6.0,71,0.00,,CLR,0.00,VWS V14.01,2013-06-24 01:07:00,
2013-06-23 21:12:00,78.8,68.6,30.00,WSW,246,1.0,6.0,71,0.00,,CLR,0.00,VWS V14.01,2013-06-24 01:12:00,
2013-06-23 21:17:00,78.6,68.8,30.01,South,190,1.0,6.0,72,0.00,,CLR,0.00,VWS V14.01,2013-06-24 01:17:00,
2013-06-23 21:22:00,78.5,68.7,30.01,SW,221,0.0,6.0,72,0.00,,CLR,0.00,VWS V14.01,2013-06-24 01:22:00,
2013-06-23 21:27:00,78.4,69.0,30.01,SW,225,1.0,6.0,73,0.00,,CLR,0.00,VWS V14.01,2013-06-24 01:27:00,
2013-06-23 21:32:00,78.2,68.8,30.01,WSW,246,0.0,6.0,73,0.00,,CLR,0.00,VWS V14.01,2013-06-24 01:32:00,
2013-06-23 21:37:00,78.1,68.8,30.01,WSW,245,2.0,6.0,73,0.00,,CLR,0.00,VWS V14.01,2013-06-24 01:37:00,
2013-06-23 21:42:00,78.0,69.1,30.01,SSW,209,0.0,6.0,74,0.00,,CLR,0.00,VWS V14.01,2013-06-24 01:42:00,
2013-06-23 21:47:00,77.9,68.9,30.01,SSW,202,0.0,6.0,74,0.00,,CLR,0.00,VWS V14.01,2013-06-24 01:47:00,
2013-06-23 21:52:00,77.8,68.9,30.01,SSW,198,0.0,6.0,74,0.00,,CLR,0.00,VWS V14.01,2013-06-24 01:52:00,
2013-06-23 21:57:00,77.7,68.8,30.01,SSW,207,0.0,6.0,74,0.00,,CLR,0.00,VWS V14.01,2013-06-24 01:57:00,
2013-06-23 22:02:00,77.6,69.1,30.01,South,190,0.0,2.0,75,0.00,,CLR,0.00,VWS V14.01,2013-06-24 02:02:00,
2013-06-23 22:07:00,77.5,69.0,30.02,SW,229,1.0,2.0,75,0.00,,CLR,0.00,VWS V14.01,2013-06-24 02:07:00,
2013-06-23 22:12:00,77.4,68.9,30.02,SSE,157,0.0,3.0,75,0.00,,CLR,0.00,VWS V14.01,2013-06-24 02:12:00,
2013-06-23 22:17:00,77.3,69.2,30.02,SW,218,1.0,3.0,76,0.00,,CLR,0.00,VWS V14.01,2013-06-24 02:17:00,
2013-06-23 22:22:00,77.1,69.0,30.01,SW,221,1.0,5.0,76,0.00,,CLR,0.00,VWS V14.01,2013-06-24 02:22:00,
2013-06-23 22:27:00,77.0,68.9,30.01,South,188,0.0,5.0,76,0.00,,CLR,0.00,VWS V14.01,2013-06-24 02:27:00,
2013-06-23 22:32:00,76.9,68.8,30.01,SSW,192,1.0,5.0,76,0.00,,CLR,0.00,VWS V14.01,2013-06-24 02:32:00,
2013-06-23 22:37:00,76.8,69.1,30.01,SSW,206,1.0,5.0,77,0.00,,CLR,0.00,VWS V14.01,2013-06-24 02:37:00,
2013-06-23 22:42:00,76.7,68.9,30.01,SSW,213,2.0,5.0,77,0.00,,CLR,0.00,VWS V14.01,2013-06-24 02:42:00,
2013-06-23 22:47:00,76.6,68.9,30.01,SW,221,2.0,5.0,77,0.00,,CLR,0.00,VWS V14.01,2013-06-24 02:47:00,
2013-06-23 22:52:00,76.5,68.8,30.01,SW,215,1.0,5.0,77,0.00,,CLR,0.00,VWS V14.01,2013-06-24 02:52:00,
2013-06-23 22:57:00,76.5,68.8,30.00,SW,236,1.0,5.0,77,0.00,,CLR,0.00,VWS V14.01,2013-06-24 02:57:00,
2013-06-23 23:02:00,76.4,68.7,30.00,WSW,241,0.0,2.0,77,0.00,,CLR,0.00,VWS V14.01,2013-06-24 03:02:00,
2013-06-23 23:07:00,76.2,68.8,30.00,SW,229,0.0,2.0,78,0.00,,CLR,0.00,VWS V14.01,2013-06-24 03:07:00,
2013-06-23 23:12:00,76.2,68.8,30.00,WSW,237,0.0,3.0,78,0.00,,CLR,0.00,VWS V14.01,2013-06-24 03:12:00,
2013-06-23 23:17:00,76.0,68.7,30.00,SW,233,0.0,3.0,78,0.00,,CLR,0.00,VWS V14.01,2013-06-24 03:17:00,
2013-06-23 23:22:00,75.8,68.8,30.00,SW,234,0.0,4.0,79,0.00,,CLR,0.00,VWS V14.01,2013-06-24 03:22:00,
2013-06-23 23:27:00,75.7,68.7,30.00,SW,227,1.0,4.0,79,0.00,,CLR,0.00,VWS V14.01,2013-06-24 03:27:00,
2013-06-23 23:32:00,75.6,68.6,29.99,SW,221,1.0,4.0,79,0.00,,CLR,0.00,VWS V14.01,2013-06-24 03:32:00,
2013-06-23 23:37:00,75.5,68.5,29.99,SSW,198,1.0,4.0,79,0.00,,CLR,0.00,VWS V14.01,2013-06-24 03:37:00,
2013-06-23 23:42:00,75.4,68.4,29.99,SSW,205,3.0,8.0,79,0.00,,CLR,0.00,VWS V14.01,2013-06-24 03:42:00,
2013-06-23 23:47:00,75.4,68.4,29.99,WSW,239,0.0,8.0,79,0.00,,CLR,0.00,VWS V14.01,2013-06-24 03:47:00,
2013-06-23 23:52:00,75.4,68.4,29.99,SSW,200,2.0,8.0,79,0.00,,CLR,0.00,VWS V14.01,2013-06-24 03:52:00,
2013-06-23 23:57:00,75.4,68.4,29.99,SSW,208,0.0,8.0,79,0.00,,CLR,0.00,VWS V14.01,2013-06-24 03:57:00,